Weather History for Copper Harbor, MI

Change the Weather History Date:

Monday, July 8, 2013

  Actual Average Record
Temperature  
Mean Temperature 54 °F -  
Max Temperature 60 °F 68 °F 81 °F (2001)
Min Temperature 48 °F 51 °F 45 °F (1996)
Degree Days  
Heating Degree Days 11    
Growing Degree Days 4 (Base 50)    
Moisture  
Dew Point 51 °F    
Average Humidity 93    
Maximum Humidity 100    
Minimum Humidity 80    
Precipitation  
Precipitation 0.00 in - - ()
Sea Level Pressure  
Sea Level Pressure 30.00 in    
Wind  
Wind Speed 2 mph (East)    
Max Wind Speed 5 mph    
Max Gust Speed -    
Averages and records for this station are not official NWS values.
T = Trace of Precipitation, MM = Missing Value Source: NWS Daily Summary

Daily Weather History Graph

Daily Weather History Graph

Search for Another Location

Airport:

Trip Planner

Search our weather history database for the weather conditions in past years. The results will help you decide how hot, cold, wet, or windy it might be!

Date:

Astronomy

Jul. 08, 2013 Rise Set
Actual Time 6:03 AM EDT 9:49 PM EDT
Civil Twilight 5:24 AM EDT 10:28 PM EDT
Nautical Twilight 4:30 AM EDT 11:21 PM EDT
Astronomical Twilight 3:13 AM EDT 12:38 AM EDT
Moon 6:39 AM EDT (7/8) 9:42 PM EDT (7/8)
Length of Visible Light 17h 04m
Length of Day
15h 45m
New Moon, 0% of the Moon is Illuminated
Jul 8
New Moon
Jul 15
First Quarter
Jul 22
Full
Jul 29
Last Quarter
Aug 6
New

Hourly Weather History & Observations

Time (EDT) Temp. Dew Point Humidity Pressure Visibility Wind Dir Wind Speed Gust Speed Precip Events Conditions
12:51 AM 52.0 °F 51.1 °F 97% 30.00 in - Variable 3.5 mph - N/A   Unknown
1:51 AM 52.0 °F 51.1 °F 97% 30.00 in - Calm Calm - N/A   Unknown
2:51 AM 52.0 °F 51.1 °F 97% 29.98 in - ESE 3.5 mph - N/A   Unknown
3:51 AM 51.1 °F 51.1 °F 100% 29.99 in - Calm Calm - N/A   Unknown
4:51 AM 48.9 °F 48.0 °F 97% 29.98 in - ESE 3.5 mph - N/A   Unknown
5:51 AM 48.9 °F 48.0 °F 97% 30.00 in - Calm Calm - N/A   Unknown
6:51 AM 48.0 °F 48.0 °F 100% 30.00 in - Calm Calm - N/A   Unknown
7:51 AM 48.9 °F 48.0 °F 97% 30.00 in - Calm Calm - N/A   Unknown
8:51 AM 50.0 °F 50.0 °F 100% 30.00 in - ESE 4.6 mph - N/A   Unknown
9:51 AM 51.1 °F 50.0 °F 96% 30.00 in - Calm Calm - N/A   Unknown
10:51 AM 48.9 °F 48.0 °F 97% 30.02 in - Calm Calm - N/A   Unknown
11:51 AM 48.0 °F 46.9 °F 96% 30.02 in - Calm Calm - N/A   Unknown
12:51 PM 54.0 °F 51.1 °F 90% 30.01 in - Calm Calm - N/A   Unknown
1:51 PM 51.1 °F 48.9 °F 92% 30.03 in - ENE 4.6 mph - N/A   Unknown
2:51 PM 51.1 °F 48.9 °F 92% 30.03 in - Calm Calm - N/A   Unknown
3:51 PM 51.1 °F 48.9 °F 92% 30.02 in - ENE 3.5 mph - N/A   Unknown
4:51 PM 54.0 °F 50.0 °F 86% 30.01 in - Calm Calm - N/A   Unknown
5:51 PM 57.9 °F 54.0 °F 87% 29.99 in - Calm Calm - N/A   Unknown
6:51 PM 60.1 °F 54.0 °F 80% 29.99 in - Calm Calm - N/A   Unknown
7:51 PM 53.1 °F 51.1 °F 93% 30.01 in - Calm Calm - N/A   Unknown
8:51 PM 54.0 °F 51.1 °F 90% 30.00 in - Calm Calm - N/A   Unknown
9:51 PM 59.0 °F 55.9 °F 90% 30.00 in - Calm Calm - N/A   Unknown
10:51 PM 60.1 °F 57.0 °F 90% 30.01 in - Calm Calm - N/A   Unknown
11:51 PM 59.0 °F 55.9 °F 90% 30.01 in - NNW 3.5 mph - N/A   Unknown